TimePDT,TemperatureF,Dew PointF,Humidity,Sea Level PressureIn,VisibilityMPH,Wind Direction,Wind SpeedMPH,Gust SpeedMPH,PrecipitationIn,Events,Conditions,WindDirDegrees,DateUTC
12:53 AM,44.1,30.9,60,29.66,-9999.0,Calm,Calm,-,N/A,,Unknown,0,2012-10-22 07:53:00
1:53 AM,41.0,28.9,62,29.64,-9999.0,SSE,5.8,-,N/A,,Unknown,150,2012-10-22 08:53:00
2:53 AM,37.0,27.0,67,29.62,-9999.0,SSW,5.8,-,N/A,,Unknown,210,2012-10-22 09:53:00
3:53 AM,41.0,28.9,62,29.57,-9999.0,SW,3.5,-,N/A,,Unknown,220,2012-10-22 10:53:00
4:53 AM,43.0,30.0,60,29.54,-9999.0,Calm,Calm,-,N/A,,Unknown,0,2012-10-22 11:53:00
5:53 AM,51.1,37.9,61,29.51,-9999.0,SSE,13.8,-,N/A,,Unknown,150,2012-10-22 12:53:00
6:53 AM,50.0,37.0,61,29.54,-9999.0,South,11.5,-,N/A,,Unknown,170,2012-10-22 13:53:00
7:53 AM,52.0,34.0,50,29.52,-9999.0,South,18.4,26.5,N/A,,Unknown,190,2012-10-22 14:53:00
8:53 AM,55.9,32.0,40,29.53,-9999.0,South,24.2,31.1,N/A,,Unknown,180,2012-10-22 15:53:00
9:53 AM,60.1,30.9,33,29.54,-9999.0,South,18.4,27.6,N/A,,Unknown,190,2012-10-22 16:53:00
11:53 AM,59.0,28.9,32,29.53,-9999.0,South,27.6,38.0,N/A,,Unknown,180,2012-10-22 18:53:00
12:53 PM,60.1,28.9,31,29.52,-9999.0,South,23.0,28.8,N/A,,Unknown,180,2012-10-22 19:53:00
1:53 PM,60.1,28.0,30,29.52,-9999.0,SSW,27.6,34.5,N/A,,Unknown,200,2012-10-22 20:53:00
2:53 PM,57.9,28.9,33,29.54,-9999.0,SW,20.7,31.1,N/A,,Unknown,220,2012-10-22 21:53:00
3:53 PM,55.9,28.9,36,29.55,-9999.0,SW,19.6,34.5,N/A,,Unknown,220,2012-10-22 22:53:00
4:53 PM,53.1,34.0,48,29.56,-9999.0,SSW,25.3,34.5,N/A,,Unknown,200,2012-10-22 23:53:00
5:53 PM,52.0,33.1,49,29.54,-9999.0,South,10.4,-,N/A,,Unknown,180,2012-10-23 00:53:00
6:53 PM,48.9,34.0,56,29.56,-9999.0,South,11.5,-,N/A,,Unknown,170,2012-10-23 01:53:00
7:53 PM,43.0,33.1,68,29.59,-9999.0,South,8.1,-,N/A,,Unknown,170,2012-10-23 02:53:00
8:53 PM,43.0,27.0,53,29.60,-9999.0,NNE,5.8,-,N/A,,Unknown,20,2012-10-23 03:53:00
9:53 PM,41.0,28.9,62,29.62,-9999.0,East,3.5,-,N/A,,Unknown,90,2012-10-23 04:53:00
10:00 PM,-9999,-9999,N/A,-9999,-9999.0,North,-9999.0,-,N/A,,Unknown,0,2012-10-23 05:00:00
11:53 PM,32.0,25.0,75,29.68,-9999.0,SE,4.6,-,N/A,,Unknown,140,2012-10-23 06:53:00